User: anonymous   Login
Location: Maddington
(51.2000°N, 1.9167°W)
Time: 22:38:03
(UTC+00:00)
Language:

Cosmos 2180 Rocket - Orbit

View from above orbital plane
View from above orbital plane
View from above satellite
View from above satellite

Ground track
Ground track

The orbit data is extracted from the following two-line orbital elements,

1 21876U 92008B   20328.07104051  .00000056  00000-0  41809-4 0  9993
2 21876  82.9269 264.5096 0035763 129.4432 241.6632 13.75668290443915
Epoch (UTC): 23 November 2020 01:42:17
Eccentricity: 0.0035763
inclination: 82.9269°
perigee height: 953 km
apogee height: 1005 km
right ascension of ascending node: 264.5096°
argument of perigee: 129.4432°
revolutions per day: 13.75668290
mean anomaly at epoch: 241.6632°
orbit number at epoch: 44391

The dashed part of the orbit path shows where the satellite is in the earth's shadow,  

DLR